Date String (YYYY-MM-DD hh:mm:ss) UTC,Instrument flags,Ambient pressure (hPa),Sample flow (lpm),Bypass flow (lpm),Sample temperature (°C),Ambient temperature (°C),ASC tube jacket temperature (°C),LED temperature (°C),Box temperature (°C),Sample RH (%),Span deviation,Mass concentration (μg/m³),Mass concentration (μg/m³),Mass concentration (μg/m³)
DateTimeUTC,F1_M11,P_M11,Q1_M11,Q2_M11,T1_M11,T2_M11,T3_M11,T4_M11,T5_M11,U1_M11,ZSPAN_M11,X2_M11,X0_M11,X1_M11
2023-02-23 10:00:00,,0818.0,5.01,0.00,22.1,20.2,00.0,31.0,23.5,02.8,0000.0,0003.16,0004.57,0002.76
2023-02-23 10:01:00,,0818.2,5.01,0.00,22.1,20.7,00.0,31.0,23.5,02.8,0000.0,0003.17,0004.57,0002.74
2023-02-23 10:02:00,,0818.4,4.99,0.00,22.2,21.7,00.0,30.9,23.8,02.8,0000.0,0003.17,0004.52,0002.73
2023-02-23 10:03:00,,0818.4,5.02,0.00,22.3,22.6,00.0,30.9,24.1,02.8,0000.0,0003.17,0004.60,0002.74
2023-02-23 10:04:00,,0818.4,5.06,0.00,22.4,23.3,00.0,31.0,24.3,02.8,0000.0,0003.19,0004.80,0002.73
2023-02-23 10:05:00,,0818.4,5.01,0.00,22.5,22.8,00.0,31.0,24.2,02.8,0000.0,0003.19,0004.88,0002.73
2023-02-23 10:06:00,,0818.4,4.99,0.00,22.4,22.1,00.0,31.0,24.1,02.8,0000.0,0003.15,0004.88,0002.72
2023-02-23 10:07:00,,0818.4,5.00,0.00,22.4,21.4,00.0,31.1,23.9,02.8,0000.0,0003.13,0004.82,0002.71
2023-02-23 10:08:00,,0818.5,4.98,0.00,22.3,20.9,00.0,31.0,23.7,02.8,0000.0,0003.13,0004.92,0002.70
2023-02-23 10:09:00,,0818.5,4.99,0.00,22.2,20.5,00.0,31.0,23.5,02.8,0000.0,0003.14,0005.37,0002.71
2023-02-23 10:10:00,,0818.4,5.01,0.00,22.2,20.8,00.0,31.0,23.7,02.8,0000.0,0003.14,0005.30,0002.71
2023-02-23 10:11:00,,0818.3,5.02,0.00,22.3,21.9,00.0,31.0,24.0,02.8,0000.0,0003.14,0005.22,0002.72
2023-02-23 10:12:00,,0818.4,5.01,0.00,22.4,22.7,00.0,31.0,24.2,02.8,0000.0,0003.13,0005.21,0002.73
2023-02-23 10:13:00,,0818.6,4.99,0.00,22.5,22.9,00.0,31.0,24.3,02.8,0000.0,0003.12,0005.19,0002.75
2023-02-23 10:14:00,,0818.5,5.00,0.00,22.5,22.2,00.0,31.1,24.2,02.8,0000.0,0003.15,0005.22,0002.78
2023-02-23 10:15:00,,0818.4,4.99,0.00,22.4,21.6,00.0,31.1,24.0,02.8,0000.0,0003.16,0005.12,0002.79
2023-02-23 10:16:00,,0818.5,5.00,0.00,22.3,21.0,00.0,31.1,23.8,02.8,0000.0,0003.15,0005.00,0002.80
2023-02-23 10:17:00,,0818.5,5.00,0.00,22.2,20.6,00.0,31.1,23.6,02.8,0000.0,0003.17,0004.91,0002.81
2023-02-23 10:18:00,,0818.5,5.02,0.00,22.2,20.9,00.0,31.0,23.7,02.8,0000.0,0003.17,0004.93,0002.82
2023-02-23 10:19:00,,0818.5,4.99,0.00,22.3,21.9,00.0,31.0,24.0,02.8,0000.0,0003.18,0004.85,0002.83
2023-02-23 10:20:00,,0818.5,5.00,0.00,22.4,22.7,00.0,31.0,24.2,02.8,0000.0,0003.17,0004.19,0002.82
2023-02-23 10:21:00,,0818.6,5.00,0.00,22.5,23.3,00.0,31.1,24.4,02.8,0000.0,0003.15,0004.07,0002.80
2023-02-23 10:22:00,,0818.6,5.01,0.00,22.6,22.8,00.0,31.1,24.3,02.8,0000.0,0003.13,0003.99,0002.78
2023-02-23 10:23:00,,0818.5,4.99,0.00,22.5,22.0,00.0,31.1,24.1,02.8,0000.0,0003.11,0003.94,0002.76
2023-02-23 10:24:00,,0818.4,4.98,0.00,22.4,21.3,00.0,31.1,23.9,02.8,0000.0,0003.08,0003.93,0002.72
2023-02-23 10:25:00,,0818.4,4.99,0.00,22.4,20.8,00.0,31.1,23.8,02.8,0000.0,0003.05,0003.93,0002.69
2023-02-23 10:26:00,,0818.4,5.02,0.00,22.3,20.4,00.0,31.1,23.7,02.8,0000.0,0002.96,0003.74,0002.65
2023-02-23 10:27:00,,0818.5,5.01,0.00,22.2,20.2,00.0,31.1,23.6,02.8,0000.0,0003.00,0003.81,0002.65
2023-02-23 10:28:00,,0818.5,4.99,0.00,22.2,21.0,00.0,31.1,23.8,02.8,0000.0,0003.01,0003.82,0002.64
2023-02-23 10:29:00,,0818.5,5.00,0.00,22.3,22.0,00.0,31.0,24.1,02.8,0000.0,0003.03,0003.91,0002.62
2023-02-23 10:30:00,,0818.5,5.03,0.00,22.4,22.8,00.0,31.1,24.3,02.8,0000.0,0003.00,0003.89,0002.59
2023-02-23 10:31:00,,0818.4,5.00,0.00,22.5,23.2,00.0,31.1,24.4,02.8,0000.0,0002.98,0003.87,0002.59
2023-02-23 10:32:00,,0818.4,5.02,0.00,22.5,22.5,00.0,31.1,24.2,02.8,0000.0,0002.98,0003.88,0002.59
2023-02-23 10:33:00,,0818.5,5.00,0.00,22.5,21.8,00.0,31.1,24.1,02.8,0000.0,0002.98,0003.93,0002.59
2023-02-23 10:34:00,,0818.5,4.98,0.00,22.4,21.3,00.0,31.1,23.9,02.8,0000.0,0003.01,0004.95,0002.60
2023-02-23 10:35:00,,0818.5,5.00,0.00,22.3,20.8,00.0,31.1,23.8,02.8,0000.0,0003.00,0005.31,0002.60
2023-02-23 10:36:00,,0818.4,4.99,0.00,22.3,20.5,00.0,31.1,23.7,02.8,0000.0,0002.98,0005.48,0002.58
2023-02-23 10:37:00,,0818.4,5.02,0.00,22.3,21.2,00.0,31.1,23.9,02.8,0000.0,0003.02,0005.60,0002.58
2023-02-23 10:38:00,,0818.4,5.01,0.00,22.4,22.2,00.0,31.1,24.1,02.8,0000.0,0002.99,0005.68,0002.57
2023-02-23 10:39:00,,0818.4,4.99,0.00,22.5,23.0,00.0,31.1,24.3,02.8,0000.0,0002.98,0005.92,0002.56
2023-02-23 10:40:00,,0818.4,5.02,0.00,22.6,23.3,00.0,31.1,24.5,02.8,0000.0,0002.93,0006.21,0002.55
2023-02-23 10:41:00,,0818.4,4.99,0.00,22.6,22.6,00.0,31.1,24.3,02.8,0000.0,0002.98,0006.25,0002.58
2023-02-23 10:42:00,,0818.3,5.00,0.00,22.5,21.9,00.0,31.2,24.1,02.8,0000.0,0003.01,0006.49,0002.57
2023-02-23 10:43:00,,0818.4,4.99,0.00,22.5,21.3,00.0,31.2,24.0,02.8,0000.0,0003.01,0006.53,0002.57
2023-02-23 10:44:00,,0818.4,5.01,0.00,22.4,20.8,00.0,31.2,23.8,02.8,0000.0,0003.04,0006.75,0002.58
2023-02-23 10:45:00,,0818.4,5.00,0.00,22.3,20.8,00.0,31.1,23.8,02.8,0000.0,0003.02,0005.94,0002.59
2023-02-23 10:46:00,,0818.4,4.99,0.00,22.4,21.7,00.0,31.1,24.0,02.8,0000.0,0003.06,0005.41,0002.59
2023-02-23 10:47:00,,0818.4,5.01,0.00,22.5,22.5,00.0,31.1,24.3,02.8,0000.0,0003.07,0005.23,0002.58
2023-02-23 10:48:00,,0818.4,4.99,0.00,22.6,23.2,00.0,31.1,24.5,02.8,0000.0,0003.08,0005.19,0002.59
2023-02-23 10:49:00,,0818.4,5.06,0.00,22.7,23.0,00.0,31.2,24.5,02.7,0000.0,0003.09,0005.11,0002.62
2023-02-23 10:50:00,,0818.4,5.00,0.00,22.6,22.2,00.0,31.2,24.3,02.8,0000.0,0003.11,0005.48,0002.65
2023-02-23 10:51:00,,0818.4,4.99,0.00,22.6,21.6,00.0,31.2,24.1,02.8,0000.0,0003.12,0005.86,0002.67
2023-02-23 10:52:00,,0818.4,5.00,0.00,22.5,21.1,00.0,31.2,24.0,02.8,0000.0,0003.13,0006.00,0002.68
2023-02-23 10:53:00,,0818.4,5.00,0.00,22.4,20.7,00.0,31.2,23.8,02.8,0000.0,0003.15,0005.93,0002.70
2023-02-23 10:54:00,,0818.4,5.01,0.00,22.3,20.7,00.0,31.2,23.8,02.8,0000.0,0003.16,0005.94,0002.71
2023-02-23 10:55:00,,0818.4,5.01,0.00,22.4,21.6,00.0,31.1,24.1,02.8,0000.0,0003.17,0006.03,0002.71
2023-02-23 10:56:00,,0818.4,4.98,0.00,22.5,22.5,00.0,31.1,24.3,02.8,0000.0,0003.20,0006.70,0002.73
2023-02-23 10:57:00,,0818.6,5.01,0.00,22.6,23.1,00.0,31.2,24.5,02.7,0000.0,0003.20,0006.69,0002.74
2023-02-23 10:58:00,,0818.7,4.97,0.00,22.7,23.0,00.0,31.2,24.5,02.7,0000.0,0003.22,0006.86,0002.76
2023-02-23 10:59:00,,0818.5,5.01,0.00,22.6,22.2,00.0,31.2,24.3,02.7,0000.0,0003.21,0006.97,0002.77
